Wind van: 21-09-2018 07:00 tot: 10:00 waarschuwing voor: Wind niveau: Geel info button
Plaatselijk zware windstoten rond 75 km/uur.Kans op windstoten.Verkeer en buitenactiviteiten kunnen hinder ondervinden.Volg weerberichten en waarschuwingen.

Weather Underground Historische gegevens

Dagelijkse Samenvatting september 21, 2018 Eenheden:  Metrisch    Engels   Beide
« Vorige Dag
Volgende Dag »
Dagelijkse Wekelijkse Maandelijkse Jaarlijkse Aangepaste
  Huidig: Hoog: Laag: Gemiddeld:
Temperatuur: -8.7 °C -17.8 °C -8.9 °C -6.8 °C
Dauwpunt: -9.5 °C -17.8 °C -9.6 °C -9.2 °C
Vochtigheid: 91 % Humidity % 71 % 76 %
Wind snelheid: 23.3 km/h 0 km/h 2.6 km/h 13 km/h
Windvlaag: 49.2 km/h 0 km/h - -
Wind:South - - SSE
Luchtdruk: 33876.9 hPa 0 hPa 33788.9 hPa -
Neerslag: 116.84 mm      
Historical Graphs
 
 
Tabel voor september 21, 2018
Tijd Temperatuur Dauwpunt Luchtdruk Wind Wind snelheid Windvlaag Vochtigheid Regenval per uur
-17.8 °C -17.8 °C 0 hPa Calm     Humidity % 0 mm
00:01 -6.5 °C -9.2 °C 34086.9 hPa SE 12.9 km/h 20.8 km/h 74 % 0 mm
00:07 -6.6 °C -9.2 °C 34086.9 hPa SE 7.7 km/h 28.5 km/h 74 % 0 mm
00:15 -6.6 °C -9.2 °C 34080.1 hPa SE 2.6 km/h 12.9 km/h 75 % 0 mm
00:18 -6.6 °C -9.2 °C 34076.7 hPa SE 7.7 km/h 20.8 km/h 75 % 0 mm
00:25 -6.7 °C -9.2 °C 34073.3 hPa SE 7.7 km/h 20.8 km/h 75 % 0 mm
00:30 -6.7 °C -9.2 °C 34073.3 hPa SE 7.7 km/h 23.3 km/h 75 % 0 mm
00:35 -6.7 °C -9.2 °C 34069.9 hPa SE 12.9 km/h 28.5 km/h 75 % 0 mm
00:41 -6.7 °C -9.2 °C 34063.2 hPa SE 7.7 km/h 18.2 km/h 75 % 0 mm
00:52 -6.8 °C -9.3 °C 34059.8 hPa SE 7.7 km/h 25.9 km/h 75 % 0 mm
01:00 -6.8 °C -9.3 °C 34053 hPa SE 7.7 km/h 25.9 km/h 75 % 0 mm
01:03 -6.7 °C -9.3 °C 34053 hPa SE 12.9 km/h 23.3 km/h 75 % 0 mm
01:10 -6.7 °C -9.3 °C 34049.6 hPa SSE 12.9 km/h 31.1 km/h 75 % 0 mm
01:15 -6.7 °C -9.2 °C 34049.6 hPa SE 12.9 km/h 28.5 km/h 75 % 0 mm
01:20 -6.7 °C -9.2 °C 34046.2 hPa SE 7.7 km/h 28.5 km/h 75 % 0 mm
01:26 -6.7 °C -9.3 °C 34042.8 hPa SE 7.7 km/h 25.9 km/h 75 % 0 mm
01:37 -6.8 °C -9.3 °C 34039.5 hPa SE 7.7 km/h 23.3 km/h 75 % 0 mm
01:45 -6.7 °C -9.3 °C 34032.7 hPa SE 15.6 km/h 28.5 km/h 75 % 0 mm
01:48 -6.7 °C -9.4 °C 34029.3 hPa SE 12.9 km/h 31.1 km/h 74 % 0 mm
01:54 -6.7 °C -9.3 °C 34025.9 hPa SE 7.7 km/h 20.8 km/h 74 % 0 mm
02:00 -6.7 °C -9.3 °C 34025.9 hPa SE 12.9 km/h 23.3 km/h 74 % 0 mm
02:05 -6.6 °C -9.3 °C 34025.9 hPa SE 7.7 km/h 23.3 km/h 74 % 0 mm
02:11 -6.6 °C -9.3 °C 34019.1 hPa SE 15.6 km/h 31.1 km/h 74 % 0 mm
02:22 -6.6 °C -9.2 °C 34019.1 hPa SE 7.7 km/h 20.8 km/h 74 % 0 mm
02:30 -6.6 °C -9.4 °C 34005.6 hPa SSE 15.6 km/h 25.9 km/h 73 % 0 mm
02:33 -6.6 °C -9.4 °C 34002.2 hPa SE 7.7 km/h 25.9 km/h 73 % 0 mm
02:39 -6.6 °C -9.3 °C 34002.2 hPa SE 12.9 km/h 20.8 km/h 74 % 0 mm
02:45 -6.7 °C -9.3 °C 33998.8 hPa SE 7.7 km/h 20.8 km/h 74 % 0 mm
02:50 -6.7 °C -9.3 °C 33995.4 hPa SE 12.9 km/h 20.8 km/h 74 % 0 mm
02:56 -6.7 °C -9.3 °C 33992.1 hPa SSE 12.9 km/h 23.3 km/h 74 % 0 mm
03:07 -6.6 °C -9.3 °C 33985.3 hPa SE 5.1 km/h 18.2 km/h 74 % 0 mm
03:15 -6.6 °C -9.3 °C 33978.5 hPa SE 12.9 km/h 25.9 km/h 73 % 0 mm
03:18 -6.5 °C -9.3 °C 33981.9 hPa SE 15.6 km/h 31.1 km/h 73 % 0 mm
03:24 -6.4 °C -9.2 °C 33975.1 hPa SE 12.9 km/h 31.1 km/h 73 % 0 mm
03:30 -6.4 °C -9.2 °C 33971.7 hPa SSE 12.9 km/h 36.2 km/h 73 % 0 mm
03:35 -6.3 °C -9.1 °C 33965 hPa SE 7.7 km/h 20.8 km/h 73 % 0 mm
03:41 -6.3 °C -9.1 °C 33961.6 hPa SSE 7.7 km/h 38.8 km/h 73 % 0 mm
03:41 -6.3 °C -9.1 °C 33961.6 hPa SE 5.1 km/h 18.2 km/h 73 % 0 mm
03:52 -6.3 °C -9.2 °C 33958.2 hPa SE 7.7 km/h 31.1 km/h 72 % 0 mm
03:58 -6.3 °C -9.2 °C 33954.8 hPa SSE 12.9 km/h 38.8 km/h 72 % 0 mm
04:03 -6.3 °C -9.2 °C 33951.4 hPa SSE 12.9 km/h 25.9 km/h 72 % 0 mm
04:09 -6.3 °C -9.2 °C 33948 hPa SSE 15.6 km/h 31.1 km/h 72 % 0 mm
04:15 -6.3 °C -9.2 °C 33941.3 hPa SSE 7.7 km/h 23.3 km/h 72 % 0 mm
04:20 -6.3 °C -9.2 °C 33934.5 hPa SSE 12.9 km/h 31.1 km/h 72 % 0 mm
04:26 -6.3 °C -9.2 °C 33927.7 hPa SE 7.7 km/h 31.1 km/h 72 % 0 mm
04:37 -6.3 °C -9.2 °C 33910.8 hPa SE 12.9 km/h 28.5 km/h 72 % 0 mm
04:43 -6.3 °C -9.2 °C 33904 hPa SE 7.7 km/h 31.1 km/h 73 % 0 mm
04:48 -6.4 °C -9.2 °C 33900.6 hPa SE 12.9 km/h 25.9 km/h 73 % 0 mm
04:54 -6.4 °C -9.2 °C 33890.5 hPa SE 18.2 km/h 36.2 km/h 73 % 0 mm
05:00 -6.4 °C -9.2 °C 33883.7 hPa SE 15.6 km/h 36.2 km/h 73 % 0 mm
05:05 -6.3 °C -9.1 °C 33883.7 hPa SE 12.9 km/h 41.4 km/h 73 % 0 mm
05:11 -6.3 °C -9.1 °C 33880.3 hPa SE 5.1 km/h 36.2 km/h 73 % 0 mm
05:22 -6.3 °C -9.1 °C 33873.5 hPa SE 7.7 km/h 36.2 km/h 73 % 0 mm
05:30 -6.3 °C -9.1 °C 33870.2 hPa SE 12.9 km/h 38.8 km/h 73 % 0 mm
05:33 -6.3 °C -9.1 °C 33863.4 hPa SE 12.9 km/h 49.2 km/h 73 % 0 mm
05:39 -6.2 °C -9 °C 33863.4 hPa SSE 20.8 km/h 57 km/h 73 % 0 mm
05:45 -6.2 °C -8.9 °C 33863.4 hPa SSE 15.6 km/h 51.8 km/h 73 % 0 mm
05:50 -6.2 °C -8.9 °C 33863.4 hPa SE 12.9 km/h 31.1 km/h 73 % 0 mm
05:56 -6.2 °C -8.9 °C 33860 hPa SSE 18.2 km/h 51.8 km/h 73 % 0 mm
06:01 -6.2 °C -8.9 °C 33853.2 hPa SSE 15.6 km/h 31.1 km/h 73 % 0 mm
06:07 -6.1 °C -8.9 °C 33846.5 hPa SSE 18.2 km/h 31.1 km/h 73 % 0 mm
06:15 -6.2 °C -8.9 °C 33839.7 hPa SSE 12.9 km/h 31.1 km/h 73 % 0 mm
06:18 -6.2 °C -9 °C 33839.7 hPa SSE 15.6 km/h 36.2 km/h 73 % 0 mm
06:24 -6.2 °C -9 °C 33839.7 hPa SSE 15.6 km/h 36.2 km/h 73 % 0 mm
06:30 -6.2 °C -9 °C 33839.7 hPa SSE 15.6 km/h 51.8 km/h 73 % 0 mm
06:35 -6.2 °C -9 °C 33843.1 hPa SSE 15.6 km/h 38.8 km/h 73 % 0 mm
06:41 -6.2 °C -9 °C 33829.5 hPa SSE 15.6 km/h 36.2 km/h 73 % 0 mm
06:46 -6.2 °C -9 °C 33826.1 hPa SSE 20.8 km/h 54.4 km/h 73 % 0 mm
06:52 -6.2 °C -9.1 °C 33826.1 hPa SSE 15.6 km/h 28.5 km/h 73 % 0 mm
07:00 -6.3 °C -9.1 °C 33816 hPa SSE 12.9 km/h 28.5 km/h 73 % 0 mm
07:03 -6.3 °C -9.1 °C 33799.1 hPa SE 15.6 km/h 28.5 km/h 73 % 0 mm
07:09 -6.3 °C -9.1 °C 33802.4 hPa SSE 18.2 km/h 57 km/h 73 % 0 mm
07:15 -6.3 °C -9.1 °C 33795.7 hPa SSE 15.6 km/h 31.1 km/h 73 % 0 mm
07:20 -6.3 °C -9.2 °C 33802.4 hPa SSE 12.9 km/h 49.2 km/h 73 % 0 mm
07:26 -6.4 °C -9.2 °C 33805.8 hPa SSE 12.9 km/h 28.5 km/h 73 % 0 mm
07:31 -6.4 °C -9.2 °C 33805.8 hPa SSE 7.7 km/h 28.5 km/h 73 % 0 mm
07:37 -6.4 °C -9.2 °C 33805.8 hPa SSE 15.6 km/h 46.7 km/h 73 % 0 mm
07:45 -6.4 °C -9.2 °C 33805.8 hPa SSE 18.2 km/h 36.2 km/h 73 % 0 mm
07:48 -6.4 °C -9.2 °C 33799.1 hPa SSE 15.6 km/h 46.7 km/h 73 % 0 mm
07:55 -6.3 °C -9.3 °C 33795.7 hPa SSE 20.8 km/h 44.1 km/h 72 % 0 mm
08:00 -6.3 °C -9.3 °C 33792.3 hPa SSE 15.6 km/h 41.4 km/h 72 % 0 mm
08:05 -6.3 °C -9.2 °C 33792.3 hPa SSE 15.6 km/h 36.2 km/h 72 % 0 mm
08:11 -6.3 °C -9.2 °C 33792.3 hPa SSE 15.6 km/h 38.8 km/h 72 % 0 mm
08:11 -6.3 °C -9.2 °C 33795.7 hPa SSE 12.9 km/h 20.8 km/h 72 % 0 mm
08:22 -6.3 °C -9.2 °C 33795.7 hPa SSE 12.9 km/h 31.1 km/h 72 % 0 mm
08:22 -6.3 °C -9.2 °C 33788.9 hPa SSE 15.6 km/h 31.1 km/h 72 % 0 mm
08:30 -6.3 °C -9.3 °C 33792.3 hPa SSE 18.2 km/h 36.2 km/h 71 % 0 mm
08:33 -6.2 °C -9.3 °C 33792.3 hPa SSE 12.9 km/h 28.5 km/h 71 % 0 mm
08:40 -6.2 °C -9.3 °C 33792.3 hPa SSE 12.9 km/h 44.1 km/h 71 % 0 mm
08:45 -6.2 °C -9.3 °C 33792.3 hPa SSE 15.6 km/h 38.8 km/h 71 % 0 mm
08:50 -6.3 °C -9 °C 33792.3 hPa SSE 18.2 km/h 41.4 km/h 74 % 0 mm
08:56 -6.6 °C -8.9 °C 33788.9 hPa SSE 20.8 km/h 62.1 km/h 77 % 0 mm
08:56 -7.1 °C -8.8 °C 33795.7 hPa SSE 20.8 km/h 36.2 km/h 82 % 7.62 mm
09:07 -7.4 °C -8.8 °C 33799.1 hPa SSE 15.6 km/h 23.3 km/h 85 % 12.7 mm
09:07 -7.7 °C -8.8 °C 33802.4 hPa SSE 15.6 km/h 28.5 km/h 88 % 12.7 mm
09:15 -7.8 °C -8.8 °C 33805.8 hPa SSE 12.9 km/h 31.1 km/h 90 % 12.7 mm
09:18 -7.9 °C -8.8 °C 33812.6 hPa SSE 7.7 km/h 23.3 km/h 91 % 12.7 mm
09:25 -8.1 °C -8.8 °C 33812.6 hPa SSE 12.9 km/h 31.1 km/h 92 % 12.7 mm
09:30 -8.1 °C -8.8 °C 33819.4 hPa SSE 7.7 km/h 31.1 km/h 93 % 25.4 mm
09:35 -8.2 °C -8.7 °C 33816 hPa SSE 12.9 km/h 23.3 km/h 94 % 20.32 mm
09:41 -8.2 °C -8.7 °C 33816 hPa SSE 12.9 km/h 23.3 km/h 95 % 7.62 mm
09:52 -8.2 °C -8.6 °C 33826.1 hPa SSE 12.9 km/h 25.9 km/h 96 % 25.4 mm
10:00 -8.3 °C -8.7 °C 33839.7 hPa SSE 12.9 km/h 38.8 km/h 96 % 25.4 mm
10:03 -8.3 °C -8.6 °C 33856.6 hPa South 20.8 km/h 59.5 km/h 97 % 12.7 mm
10:09 -8.7 °C -9.1 °C 33849.8 hPa South 20.8 km/h 51.8 km/h 95 % 7.62 mm
10:15 -8.8 °C -9.4 °C 33853.2 hPa South 20.8 km/h 49.2 km/h 94 % 0 mm
10:26 -8.9 °C -9.5 °C 33856.6 hPa South 12.9 km/h 46.7 km/h 94 % 0 mm
10:37 -8.9 °C -9.6 °C 33866.8 hPa South 18.2 km/h 41.4 km/h 92 % 0 mm
10:45 -8.8 °C -9.6 °C 33876.9 hPa South 12.9 km/h 25.9 km/h 91 % 0 mm
10:48 -8.7 °C -9.5 °C 33876.9 hPa South 23.3 km/h 49.2 km/h 91 % 0 mm
Meteo Sleen
Gegevens verzameld door Weather Underground - 2 mb

Script ontwikkeld door  Jim McMurry - jmcmurry@mwt.net Aangepast voor de template door  Wim van der Kuil - Leuven-Template.eu

U vindt ons ook hier:

Het Weer Aktueel

UK Metoffice

European Weather Network

Weather Underground

Benelux Weer Netwerk

AWEKAS

Citizen Weather Observer Program (CWOP)

Apparatuur in gebruik:

Weerstation
Davis VP2

Weerprogramma
consoleWD

Weercomputer
RaspberryPI

Webleverancier
Deziweb

Davis VP2

consoleWD

RaspberryPI

Deziweb